Simultaneous Nadir Overpasses (SNOs) Predictions

Prediction of SNOs between GOES-16 and METOP-C Satellite Orbit:

Table of predicted SNOs for the next 14.0 days since TLE Epoch: 2/4/2023
Index Date Time (GOES-16) GOES-16 Lat,Lon METOP-C Lat,Lon Distance(km) Time Diff (sec)
1 02/04/2023 14:48:21 0.01, -75.20 0.89, -78.97 430.82 80
2 02/05/2023 14:25:03 0.01, -75.20 -0.25, -73.98 138.66 80
3 02/07/2023 02:46:45 -0.02, -75.20 -0.78, -78.59 386.26 80
4 02/08/2023 02:23:26 -0.02, -75.21 0.35, -73.60 183.56 80
5 02/09/2023 14:44:58 0.03, -75.24 0.67, -78.16 332.28 80
6 02/10/2023 14:21:39 0.03, -75.25 -0.47, -73.17 237.96 80
7 02/12/2023 02:43:20 -0.03, -75.25 -0.61, -77.76 286.07 80
8 02/13/2023 02:20:02 -0.02, -75.27 0.53, -72.77 284.13 80
9 02/14/2023 14:41:33 0.02, -75.30 0.49, -77.33 231.61 80
10 02/15/2023 14:18:15 0.02, -75.32 -0.66, -72.35 338.73 80
11 02/17/2023 02:39:56 -0.03, -75.32 -0.40, -76.94 184.90 80
12 02/18/2023 02:16:38 -0.02, -75.33 0.75, -71.96 385.51 80
